Location: *
(45.1961°N, 1.9694°E)
Time: 10:31:59
(UTC+00:00)

Cosmos 1733 Rocket - Pass Details

Date: 25 August 2019
Orbit: 604 x 628 km, 82.5° (Epoch: 21 October)

Event Time Altitude Azimuth Distance (km) Brightness Sun altitude
Rises 19:13:29 0° 169° (SSE) 2,844 6.1 -5.9°
Reaches altitude 10° 19:15:47 10° 161° (SSE) 1,946 5.2 -6.3°
Maximum altitude 19:19:48 40° 92° (E) 894 3.5 -7.0°
Drops below altitude 10° 19:23:52 10° 23° (NNE) 1,965 5.7 -7.6°
Sets 19:26:11 0° 16° (NNE) 2,876 6.6 -8.0°
